[[{"header":{"parameterUnit":"m.s-1","parameterCategory":1,"la1":30.2991,"la2":30.254,"lo1":-89.0895,"lo2":-89.0444,"dy":0.0017,"dx":0.0017,"nx":28,"ny":28,"refTime":"2023-08-01T21:00:00:Z","depth":0,"parameterNumber":2,"parameterNumberName":"U-component_of_WINDS"},"data":[0,0,0,0,0,0,0,0,0,0,0,0,0,0,0,0,0,0,0,0,0,0,0,0,0,0,0,0,0,0,0,0,0,0,0,0,0,0,0,0,0,0,0,0,0,0,0,0,0,0,0,0,0,0,0,0,0,0,-0.4089,-0.4088,0,-0.3946,-0.3944,-0.3942,-0.3891,-0.3891,-0.3892,-0.3892,-0.3739,-0.3735,-0.373,0,0,0,0,0,0,0,0,0,0,0,0,0,-0.4316,-0.4312,-0.409,-0.4088,-0.4086,-0.3946,-0.3944,-0.3942,-0.3891,-0.3891,-0.3892,-0.3892,-0.3741,-0.3735,-0.373,0,0,0,0,0,0,0,0,0,0,0,0,0,-0.4199,-0.4311,-0.409,-0.4044,-0.4038,-0.3946,-0.3944,-0.3941,-0.389,-0.3891,-0.3892,-0.3893,-0.3743,-0.3736,-0.3729,-0.3671,0,0,-0.3708,-0.3705,0,0,0,0,0,0,0,0,-0.4206,-0.4191,-0.4052,-0.4047,-0.404,-0.3937,-0.3968,-0.3851,-0.389,-0.3946,-0.3892,-0.3893,-0.3804,-0.3792,-0.3763,-0.3664,-0.3658,-0.3708,-0.3704,-0.3701,-0.3699,0,0,0,0,0,0,0,-0.4214,-0.4197,-0.4032,-0.405,-0.4043,-0.4029,-0.4013,-0.3945,-0.3872,-0.3941,-0.3937,-0.3921,-0.3801,-0.377,-0.3759,-0.3655,-0.3708,-0.3702,-0.3698,-0.3695,-0.3503,-0.3502,0,0,0,0,0,0,-0.423,-0.4204,-0.4037,-0.4028,-0.4127,-0.4024,-0.4006,-0.3969,-0.3873,-0.3859,-0.3921,-0.3919,-0.3781,-0.3767,-0.3754,-0.368,-0.3701,-0.3694,-0.369,-0.3504,-0.3502,-0.3501,0,0,0,0,0,0,-0.4236,-0.4216,-0.4043,-0.4115,-0.4092,-0.4019,-0.3978,-0.3966,-0.3935,-0.3857,-0.3844,-0.3903,-0.3781,-0.3763,-0.3693,-0.3674,-0.3691,-0.3685,-0.3505,-0.3503,-0.3502,-0.3533,0,0,0,0,0,0,-0.4242,-0.4218,-0.4196,-0.4115,-0.4088,-0.3986,-0.3977,-0.3963,-0.3924,-0.3921,-0.3837,-0.3824,-0.3781,-0.3703,-0.3686,-0.3665,-0.368,-0.3506,-0.3504,-0.3502,-0.3533,-0.3533,-0.3532,0,0,0,0,0,-0.4251,-0.4209,-0.4195,-0.4176,-0.406,-0.3985,-0.3969,-0.3922,-0.3923,-0.39,-0.385,-0.3827,-0.368,-0.3697,-0.3677,-0.3654,-0.3507,-0.3505,-0.3503,-0.3534,-0.3533,-0.3532,0,0,0,0,0,0,-0.4288,-0.4198,-0.4181,-0.4113,-0.4057,-0.3976,-0.3945,-0.3922,-0.3864,-0.3863,-0.3805,-0.3787,-0.3721,-0.368,-0.3701,-0.3593,-0.3592,-0.3585,-0.3622,-0.3621,-0.3621,-0.3631,-0.3674,0,0,0,0,0,-0.4289,-0.4237,-0.416,-0.4107,-0.408,-0.4018,-0.3984,-0.3952,-0.3891,-0.3867,-0.3812,-0.3752,-0.3693,-0.3655,-0.3595,-0.3528,-0.3509,-0.3502,-0.3502,-0.3502,-0.3496,-0.3458,-0.3455,-0.3494,-0.3494,-0.3494,0,0,-0.4289,-0.4233,-0.4204,-0.4113,-0.4067,-0.4013,-0.3998,-0.3942,-0.3902,-0.3858,-0.3789,-0.3746,-0.3676,-0.3607,-0.3574,-0.3571,-0.3482,-0.3499,-0.3499,-0.3494,-0.3456,-0.3452,-0.3449,-0.3492,-0.3493,-0.3493,0,0,-0.4262,-0.4215,-0.4166,-0.412,-0.405,-0.4009,-0.3998,-0.3921,-0.3892,-0.3822,-0.3788,-0.3739,-0.3637,-0.3589,-0.3551,-0.3509,-0.3485,-0.3491,-0.3488,-0.3452,-0.3448,-0.3445,-0.3431,-0.3426,-0.3486,-0.3486,-0.3486,0,-0.4271,-0.419,-0.4143,-0.409,-0.4051,-0.4012,-0.3961,-0.3918,-0.3832,-0.3806,-0.3804,-0.3678,-0.3627,-0.3547,-0.3537,-0.3508,-0.3492,-0.35,-0.3453,-0.3449,-0.3446,-0.3431,-0.3426,-0.3487,-0.3487,-0.3487,-0.3487,0,-0.4205,-0.415,-0.4118,-0.4039,-0.3996,-0.3945,-0.3889,-0.3852,-0.3825,-0.3784,-0.3714,-0.3652,-0.3581,-0.356,-0.3531,-0.3475,-0.3476,-0.3465,-0.3462,-0.3444,-0.3429,-0.3423,-0.3489,-0.3489,-0.3488,-0.3488,0,0,-0.4196,-0.4093,-0.4082,-0.4046,-0.3967,-0.3923,-0.3869,-0.3802,-0.3771,-0.3713,-0.3667,-0.3583,-0.3573,-0.353,-0.3496,-0.3464,-0.3435,-0.3456,-0.3454,-0.3455,-0.337,-0.338,-0.3374,-0.342,-0.3418,-0.3417,-0.3376,0,-0.4159,-0.4063,-0.402,-0.3944,-0.3893,-0.3855,-0.3809,-0.3755,-0.3715,-0.3665,-0.3621,-0.3563,-0.3554,-0.3528,-0.3495,-0.3446,-0.3417,-0.3448,-0.3375,-0.3373,-0.3393,-0.3366,-0.3375,-0.3339,-0.337,-0.3369,-0.3368,0,-0.4102,-0.4047,-0.3966,-0.3895,-0.3872,-0.3831,-0.3766,-0.3719,-0.3657,-0.3631,-0.3585,-0.3553,-0.3494,-0.3497,-0.3416,-0.3438,-0.3405,-0.3377,-0.3374,-0.3365,-0.3369,-0.3356,-0.3326,-0.3321,-0.3359,-0.3359,-0.336,0,-0.4105,-0.401,-0.395,-0.392,-0.3835,-0.3807,-0.377,-0.3709,-0.3672,-0.3615,-0.359,-0.3526,-0.3491,-0.3442,-0.3394,-0.34,-0.3317,-0.3315,-0.3293,-0.3294,-0.3276,-0.3278,-0.3242,-0.3256,-0.3256,-0.3256,-0.3257,0,-0.4068,-0.402,-0.395,-0.3913,-0.3858,-0.3809,-0.3755,-0.3716,-0.3662,-0.3616,-0.3579,-0.3536,-0.3475,-0.3424,-0.3386,-0.3325,-0.3309,-0.3286,-0.3276,-0.3289,-0.3292,-0.3266,-0.3267,-0.3255,-0.3255,-0.3256,-0.3256,0,-0.4061,-0.4012,-0.3944,-0.387,-0.3851,-0.3813,-0.375,-0.3712,-0.3672,-0.3614,-0.3597,-0.3534,-0.3472,-0.342,-0.3338,-0.3312,-0.3249,-0.3238,-0.3271,-0.3266,-0.3247,-0.3249,-0.3192,-0.3182,-0.3204,-0.3204,-0.3204,0,-0.404,-0.4003,-0.3926,-0.3893,-0.3858,-0.3805,-0.3768,-0.3718,-0.368,-0.3608,-0.3579,-0.3515,-0.3462,-0.3365,-0.3311,-0.3249,-0.3235,-0.3219,-0.3225,-0.324,-0.3235,-0.3238,-0.3234,-0.3219,-0.3219,-0.3219,-0.3219,0,-0.4009,-0.3988,-0.3935,-0.3875,-0.3832,-0.3782,-0.373,-0.3706,-0.3646,-0.3605,-0.3544,-0.3502,-0.3421,-0.3358,-0.329,-0.325,-0.3225,-0.3218,-0.321,-0.3222,-0.3243,-0.3232,-0.327,-0.3219,-0.3219,-0.3219,-0.3219,-0.3219,-0.3994,-0.396,-0.3901,-0.3845,-0.3802,-0.3755,-0.3716,-0.3673,-0.3621,-0.3552,-0.3525,-0.3462,-0.3402,-0.3308,-0.3269,-0.3218,-0.3214,-0.3202,-0.3199,-0.3196,-0.3199,-0.3252,-0.3206,-0.3205,-0.3205,-0.3205,-0.3205,0,-0.3962,-0.3923,-0.3872,-0.3802,-0.3758,-0.374,-0.3683,-0.3646,-0.3592,-0.3539,-0.3488,-0.3417,-0.3357,-0.3299,-0.3235,-0.3205,-0.3192,-0.319,-0.3192,-0.3183,-0.3206,-0.322,-0.3202,-0.3202,-0.3202,-0.3202,-0.3202,-0.3202,-0.394,-0.3881,-0.3853,-0.3772,-0.3732,-0.3672,-0.3641,-0.3597,-0.3555,-0.3478,-0.3429,-0.3392,-0.3337,-0.327,-0.3213,-0.3198,-0.3176,-0.3177,-0.3159,-0.318,-0.3181,-0.3182,-0.3195,-0.3173,-0.3173,-0.314,-0.314,-0.314]},{"header":{"parameterUnit":"m.s-1","parameterCategory":1,"la1":30.2991,"la2":30.254,"lo1":-89.0895,"lo2":-89.0444,"dy":0.0017,"dx":0.0017,"nx":28,"ny":28,"refTime":"2023-08-01T21:00:00:Z","depth":0,"parameterNumber":3,"parameterNumberName":"V-component_of_WINDS"},"data":[0,0,0,0,0,0,0,0,0,0,0,0,0,0,0,0,0,0,0,0,0,0,0,0,0,0,0,0,0,0,0,0,0,0,0,0,0,0,0,0,0,0,0,0,0,0,0,0,0,0,0,0,0,0,0,0,0,0,3.897,3.8969,0,3.8883,3.8882,3.8881,3.8872,3.8873,3.8874,3.8874,3.8776,3.8773,3.8769,0,0,0,0,0,0,0,0,0,0,0,0,0,3.9121,3.9118,3.897,3.8969,3.8968,3.8883,3.8882,3.888,3.8872,3.8873,3.8874,3.8875,3.8777,3.8773,3.8769,0,0,0,0,0,0,0,0,0,0,0,0,0,3.9047,3.9118,3.897,3.8953,3.8951,3.8883,3.8881,3.888,3.8871,3.8873,3.8874,3.8875,3.8779,3.8773,3.8768,3.8708,0,0,3.8752,3.875,0,0,0,0,0,0,0,0,3.9051,3.9041,3.8957,3.8954,3.8952,3.889,3.8899,3.8822,3.8871,3.8901,3.8874,3.8876,3.8812,3.8804,3.8784,3.8704,3.8699,3.8752,3.8749,3.8746,3.8745,0,0,0,0,0,0,0,3.9056,3.9045,3.8935,3.8956,3.8952,3.8948,3.8939,3.8884,3.885,3.8899,3.8898,3.8888,3.8811,3.879,3.8782,3.8698,3.8752,3.8747,3.8744,3.8742,3.8563,3.8561,0,0,0,0,0,0,3.9066,3.9049,3.8938,3.8933,3.9006,3.8944,3.8934,3.8908,3.885,3.8843,3.8887,3.8888,3.8798,3.8788,3.8779,3.8704,3.8747,3.8742,3.8739,3.8564,3.8562,3.8561,0,0,0,0,0,0,3.9069,3.9056,3.8941,3.8991,3.8976,3.894,3.8911,3.8906,3.8884,3.8842,3.8835,3.8872,3.8799,3.8786,3.8726,3.87,3.8739,3.8735,3.8566,3.8564,3.8562,3.8554,0,0,0,0,0,0,3.9073,3.9057,3.9036,3.899,3.8973,3.8893,3.8909,3.8903,3.8876,3.8877,3.8826,3.8818,3.8799,3.8734,3.8721,3.8694,3.873,3.8568,3.8565,3.8562,3.8557,3.8552,3.8548,0,0,0,0,0,3.9079,3.9035,3.9035,3.9021,3.8946,3.8891,3.8881,3.8862,3.8874,3.8851,3.8824,3.882,3.8706,3.8728,3.8713,3.8684,3.857,3.8566,3.8563,3.8559,3.8553,3.8548,0,0,0,0,0,0,3.9075,3.9029,3.9028,3.8969,3.8935,3.889,3.886,3.8856,3.8816,3.8817,3.8792,3.8781,3.8722,3.8697,3.8723,3.8623,3.8639,3.8632,3.8641,3.8635,3.8631,3.8637,3.8726,0,0,0,0,0,3.9068,3.903,3.8991,3.8942,3.8926,3.8896,3.8872,3.886,3.8822,3.8807,3.8775,3.8736,3.8691,3.8662,3.8619,3.8554,3.8542,3.8526,3.8522,3.8519,3.8512,3.8475,3.8468,3.8549,3.8549,3.8549,0,0,3.9051,3.9022,3.8999,3.8941,3.8913,3.8872,3.8884,3.884,3.8808,3.8799,3.8741,3.8717,3.8672,3.8609,3.858,3.8587,3.8488,3.8514,3.8512,3.8507,3.8471,3.8463,3.8456,3.8546,3.8547,3.8547,0,0,3.9,3.8975,3.8932,3.8905,3.8863,3.8844,3.8834,3.8791,3.8775,3.8718,3.871,3.8671,3.8595,3.8563,3.8537,3.8476,3.847,3.8462,3.8438,3.8402,3.8396,3.839,3.8367,3.8359,3.8456,3.8456,3.8456,0,3.8984,3.8925,3.8909,3.8866,3.884,3.8834,3.8789,3.8762,3.8707,3.8688,3.8698,3.8602,3.8571,3.8501,3.8487,3.8466,3.8452,3.8466,3.8399,3.8393,3.8387,3.8364,3.8356,3.8455,3.8455,3.8456,3.8456,0,3.8906,3.8865,3.8835,3.8786,3.8757,3.8712,3.8688,3.866,3.8651,3.8631,3.8571,3.8535,3.8484,3.8467,3.8456,3.8394,3.84,3.8404,3.8419,3.8379,3.8357,3.8348,3.8454,3.8455,3.8455,3.8455,0,0,3.8848,3.8793,3.8782,3.876,3.8715,3.8681,3.8636,3.8589,3.8565,3.8528,3.8488,3.8425,3.8429,3.8399,3.8385,3.8354,3.8307,3.8362,3.8361,3.8352,3.8235,3.823,3.8221,3.8304,3.8302,3.8301,3.8238,0,3.8791,3.8714,3.8699,3.863,3.8591,3.8585,3.8546,3.8513,3.8492,3.8454,3.8431,3.8386,3.8396,3.8378,3.8347,3.8319,3.8282,3.8324,3.8263,3.8262,3.8273,3.821,3.8205,3.8147,3.8229,3.8228,3.8227,0,3.8713,3.8678,3.8606,3.8567,3.855,3.8515,3.8471,3.8436,3.8397,3.8384,3.8353,3.8343,3.8293,3.8313,3.8243,3.8272,3.8246,3.8229,3.8226,3.8218,3.824,3.8198,3.8128,3.8119,3.8214,3.8215,3.8216,0,3.8676,3.861,3.8559,3.854,3.8493,3.8469,3.8448,3.8411,3.8384,3.8345,3.8326,3.8281,3.8255,3.8219,3.8197,3.8214,3.8128,3.8146,3.8114,3.8114,3.8094,3.8095,3.8018,3.8081,3.8081,3.8082,3.8082,0,3.8613,3.8568,3.8542,3.851,3.846,3.8443,3.8393,3.8372,3.834,3.8302,3.8293,3.8257,3.8231,3.819,3.8172,3.8116,3.8105,3.8091,3.8087,3.8091,3.8093,3.8072,3.8075,3.8079,3.808,3.808,3.8081,0,3.8562,3.8543,3.8486,3.8448,3.8437,3.8402,3.8367,3.8335,3.8316,3.8268,3.8255,3.8224,3.8176,3.8151,3.809,3.8078,3.8015,3.8013,3.8028,3.8026,3.7995,3.7997,3.7899,3.7885,3.796,3.796,3.7959,0,3.8522,3.8488,3.8447,3.8423,3.8402,3.8362,3.8336,3.8318,3.8289,3.8244,3.8216,3.8169,3.813,3.8053,3.8023,3.7977,3.7972,3.7942,3.7965,3.7971,3.797,3.7972,3.7967,3.7937,3.7936,3.7935,3.7935,0,3.8452,3.8445,3.8408,3.8368,3.8337,3.8304,3.8271,3.825,3.8227,3.8195,3.8148,3.8118,3.8058,3.801,3.7961,3.7936,3.793,3.7928,3.7918,3.7921,3.7931,3.7924,3.8015,3.793,3.793,3.7931,3.7931,3.7931,3.8404,3.8374,3.8341,3.83,3.8274,3.8244,3.8212,3.819,3.8151,3.8103,3.8094,3.8043,3.8005,3.794,3.7914,3.7872,3.7878,3.7864,3.786,3.7856,3.7854,3.794,3.7863,3.7864,3.7864,3.7864,3.7864,0,3.8332,3.8312,3.8275,3.823,3.8198,3.82,3.8163,3.8135,3.8092,3.8058,3.8021,3.7966,3.792,3.7888,3.784,3.7813,3.7809,3.7801,3.7801,3.7795,3.7852,3.7865,3.7805,3.7805,3.7805,3.7805,3.7805,3.7805,3.8291,3.8241,3.8229,3.8165,3.8143,3.8096,3.8075,3.8047,3.802,3.796,3.7923,3.7903,3.7869,3.782,3.7777,3.7768,3.775,3.7742,3.7732,3.7785,3.7791,3.7797,3.7809,3.7738,3.7738,3.7679,3.7679,3.7678]}]]